Weather History for KCOD - March, 2013

Change the Weather History Date:

Saturday, March 30, 2013

  Actual Average (KGEY) Record (KGEY)
Temperature  
Mean Temperature 44 °F 42 °F  
Max Temperature 53 °F 56 °F 77 °F (2004)
Min Temperature 35 °F 28 °F 18 °F (2008)
Degree Days  
Heating Degree Days 21 23  
Month to date heating degree days 848  
Since 1 July heating degree days 6819  
Cooling Degree Days 0 0  
Month to date cooling degree days 0  
Year to date cooling degree days 0  
Moisture  
Dew Point 31 °F    
Average Humidity 68    
Maximum Humidity 100    
Minimum Humidity 28    
Precipitation  
Precipitation 0.02 in 0.02 in 0.06 in (2013)
Month to date precipitation 0.38  
Year to date precipitation 0.79  
Sea Level Pressure  
Sea Level Pressure 30.15 in    
Wind  
Wind Speed 5 mph (ESE)    
Max Wind Speed 13 mph    
Max Gust Speed 16 mph    
Visibility 10 miles    
Events      
T = Trace of Precipitation, MM = Missing Value Source: NWS Daily Summary

Daily Weather History Graph

Daily Weather History Graph

Search for Another Location

Airport or City:

Trip Planner

Search our weather history database for the weather conditions in past years. The results will help you decide how hot, cold, wet, or windy it might be!

Date:

Astronomy

Mar. 30, 2013 Rise Set
Actual Time 7:00 AM MDT 7:41 PM MDT
Civil Twilight 6:30 AM MDT 8:10 PM MDT
Nautical Twilight 5:56 AM MDT 8:45 PM MDT
Astronomical Twilight 5:19 AM MDT 9:22 PM MDT
Moon No Moon Rise 8:49 AM MDT (3/30)
Length of Visible Light 13h 39m
Length of Day
12h 41m
Waning Gibbous, 86% of the Moon is Illuminated
Mar 30
Waning Gibbous
Apr 2
Last Quarter
Apr 10
New
Apr 18
First Quarter
Apr 25
Full

Hourly Weather History & Observations

Time (MDT) Temp. Windchill Dew Point Humidity Pressure Visibility Wind Dir Wind Speed Gust Speed Precip Events Conditions
12:15 AM 37.4 °F 30.8 °F 35.6 °F 93% 30.16 in 10.0 mi NNE 9.2 mph - N/A   Overcast
12:35 AM 39.2 °F 35.0 °F 37.4 °F 93% 30.16 in 10.0 mi NE 5.8 mph - N/A   Overcast
12:55 AM 39.2 °F 35.9 °F 37.4 °F 93% 30.17 in 10.0 mi ENE 4.6 mph - N/A   Overcast
1:15 AM 39.2 °F 35.0 °F 37.4 °F 93% 30.16 in 10.0 mi NNE 5.8 mph - N/A   Overcast
1:35 AM 39.2 °F 35.9 °F 37.4 °F 93% 30.16 in 10.0 mi NE 4.6 mph - 0.02 in   Overcast
1:55 AM 39.2 °F - 35.6 °F 87% 30.16 in 10.0 mi Calm Calm - 0.02 in   Overcast
2:15 AM 39.2 °F - 35.6 °F 87% 30.16 in 10.0 mi Calm Calm - N/A   Overcast
2:35 AM 39.2 °F 35.9 °F 37.4 °F 93% 30.15 in 10.0 mi South 4.6 mph - N/A   Overcast
2:55 AM 39.2 °F 35.9 °F 37.4 °F 93% 30.15 in 10.0 mi South 4.6 mph - N/A   Overcast
3:15 AM 39.2 °F 35.9 °F 37.4 °F 93% 30.15 in 10.0 mi South 4.6 mph - N/A   Overcast
3:35 AM 39.2 °F - 37.4 °F 93% 30.15 in 10.0 mi Calm Calm - N/A   Overcast
3:55 AM 39.2 °F - 37.4 °F 93% 30.15 in 10.0 mi Calm Calm - N/A   Overcast
4:15 AM 37.4 °F - 37.4 °F 100% 30.15 in 10.0 mi Calm Calm - N/A   Overcast
4:35 AM 37.4 °F - 37.4 °F 100% 30.15 in 10.0 mi Calm Calm - N/A   Overcast
4:55 AM 37.4 °F - 35.6 °F 93% 30.15 in 10.0 mi Calm Calm - N/A   Overcast
5:15 AM 37.4 °F - 37.4 °F 100% 30.15 in 10.0 mi Calm Calm - N/A   Overcast
5:35 AM 37.4 °F - 35.6 °F 93% 30.15 in 10.0 mi Calm Calm - N/A   Overcast
6:15 AM 39.2 °F 37.0 °F 35.6 °F 87% 30.15 in 10.0 mi South 3.5 mph - N/A   Overcast
6:35 AM 37.4 °F 32.8 °F 35.6 °F 93% 30.15 in 10.0 mi South 5.8 mph - N/A   Overcast
7:15 AM 37.4 °F 32.8 °F 35.6 °F 93% 30.16 in 10.0 mi SSW 5.8 mph - N/A   Overcast
7:35 AM 37.4 °F - 35.6 °F 93% 30.17 in 10.0 mi Calm Calm - N/A   Overcast
8:35 AM 35.6 °F 29.9 °F 33.8 °F 93% 30.18 in 10.0 mi South 6.9 mph - N/A   Overcast
8:55 AM 35.6 °F 29.2 °F 33.8 °F 93% 30.19 in 10.0 mi SSW 8.1 mph - N/A   Mostly Cloudy
9:15 AM 35.6 °F 28.6 °F 33.8 °F 93% 30.18 in 10.0 mi SSW 9.2 mph - N/A   Mostly Cloudy
9:55 AM 37.4 °F 32.1 °F 35.6 °F 93% 30.17 in 10.0 mi South 6.9 mph - N/A   Overcast
10:15 AM 39.2 °F 32.0 °F 37.4 °F 93% 30.17 in 10.0 mi South 11.5 mph - N/A   Scattered Clouds
10:35 AM 42.8 °F 37.5 °F 37.4 °F 81% 30.17 in 10.0 mi South 9.2 mph - N/A   Partly Cloudy
10:55 AM 42.8 °F 37.5 °F 37.4 °F 81% 30.17 in 10.0 mi SSE 9.2 mph - N/A   Mostly Cloudy
11:15 AM 44.6 °F 39.7 °F 37.4 °F 76% 30.17 in 10.0 mi SE 9.2 mph - N/A   Overcast
11:35 AM 44.6 °F 40.7 °F 37.4 °F 76% 30.18 in 10.0 mi SSE 6.9 mph - N/A   Scattered Clouds
11:55 AM 46.4 °F - 37.4 °F 71% 30.18 in 10.0 mi Calm Calm - N/A   Scattered Clouds
12:15 PM 46.4 °F 43.5 °F 37.4 °F 71% 30.18 in 10.0 mi ESE 5.8 mph - N/A   Mostly Cloudy
12:35 PM 46.4 °F 44.3 °F 35.6 °F 66% 30.17 in 10.0 mi East 4.6 mph - N/A   Scattered Clouds
12:55 PM 48.2 °F - 33.8 °F 58% 30.17 in 10.0 mi ENE 4.6 mph - N/A   Partly Cloudy
1:15 PM 48.2 °F - 33.8 °F 58% 30.17 in 10.0 mi NNE 5.8 mph - N/A   Mostly Cloudy
1:35 PM 50.0 °F - 35.6 °F 58% 30.17 in 10.0 mi NNE 10.4 mph - N/A   Mostly Cloudy
1:55 PM 50.0 °F - 33.8 °F 54% 30.17 in 10.0 mi NNE 8.1 mph - N/A   Scattered Clouds
2:15 PM 48.2 °F - 32.0 °F 54% 30.17 in 10.0 mi ENE 3.5 mph - N/A   Scattered Clouds
2:35 PM 51.8 °F - 32.0 °F 47% 30.17 in 10.0 mi NNE 11.5 mph - N/A   Mostly Cloudy
2:55 PM 51.8 °F - 30.2 °F 44% 30.16 in 10.0 mi NNE 10.4 mph 16.1 mph N/A   Mostly Cloudy
3:15 PM 53.6 °F - 26.6 °F 35% 30.15 in 10.0 mi NE 9.2 mph - N/A   Partly Cloudy
3:35 PM 53.6 °F - 26.6 °F 35% 30.15 in 10.0 mi NNE 12.7 mph - N/A   Clear
3:55 PM 53.6 °F - 24.8 °F 33% 30.15 in 10.0 mi ENE 10.4 mph - N/A   Clear
4:15 PM 51.8 °F - 24.8 °F 35% 30.15 in 10.0 mi Calm Calm - N/A   Partly Cloudy
4:35 PM 53.6 °F - 26.6 °F 35% 30.14 in 10.0 mi NNE 4.6 mph - N/A   Clear
4:55 PM 53.6 °F - 26.6 °F 35% 30.14 in 10.0 mi NE 5.8 mph - N/A   Partly Cloudy
5:15 PM 53.6 °F - 24.8 °F 33% 30.14 in 10.0 mi NNE 10.4 mph 16.1 mph N/A   Partly Cloudy
5:35 PM 53.6 °F - 24.8 °F 33% 30.14 in 10.0 mi NE 9.2 mph - N/A   Partly Cloudy
5:55 PM 53.6 °F - 23.0 °F 30% 30.14 in 10.0 mi NNE 8.1 mph - N/A   Clear
6:15 PM 53.6 °F - 21.2 °F 28% 30.14 in 10.0 mi NE 8.1 mph - N/A   Clear
6:35 PM 51.8 °F - 21.2 °F 30% 30.14 in 10.0 mi NE 5.8 mph - N/A   Clear
6:55 PM 51.8 °F - 21.2 °F 30% 30.14 in 10.0 mi NE 6.9 mph - N/A   Clear
7:15 PM 50.0 °F - 21.2 °F 32% 30.14 in 10.0 mi NNE 8.1 mph - N/A   Clear
7:35 PM 48.2 °F - 21.2 °F 34% 30.14 in 10.0 mi NNE 5.8 mph - N/A   Clear
7:55 PM 46.4 °F 45.2 °F 21.2 °F 37% 30.14 in 10.0 mi NNE 3.5 mph - N/A   Clear
8:15 PM 46.4 °F - 23.0 °F 40% 30.14 in 10.0 mi Calm Calm - N/A   Clear
8:35 PM 44.6 °F 40.7 °F 23.0 °F 43% 30.14 in 10.0 mi SSE 6.9 mph - N/A   Clear
8:55 PM 42.8 °F 40.1 °F 26.6 °F 53% 30.15 in 10.0 mi WSW 4.6 mph - N/A   Clear
9:15 PM 39.2 °F 37.0 °F 24.8 °F 56% 30.14 in 10.0 mi South 3.5 mph - N/A   Clear
9:35 PM 39.2 °F 35.0 °F 26.6 °F 61% 30.14 in 10.0 mi South 5.8 mph - N/A   Clear
9:55 PM 37.4 °F 34.9 °F 26.6 °F 65% 30.14 in 10.0 mi South 3.5 mph - N/A   Clear
10:15 PM 37.4 °F 33.8 °F 26.6 °F 65% 30.14 in 10.0 mi South 4.6 mph - N/A   Clear
10:35 PM 37.4 °F 34.9 °F 26.6 °F 65% 30.13 in 10.0 mi South 3.5 mph - N/A   Clear
10:55 PM 35.6 °F 30.7 °F 26.6 °F 70% 30.13 in 10.0 mi South 5.8 mph - N/A   Clear
11:15 PM 35.6 °F 30.7 °F 26.6 °F 70% 30.12 in 10.0 mi South 5.8 mph - N/A   Clear
11:35 PM 37.4 °F 32.1 °F 26.6 °F 65% 30.11 in 10.0 mi South 6.9 mph - N/A   Clear
11:55 PM 37.4 °F 30.3 °F 26.6 °F 65% 30.10 in 10.0 mi South 10.4 mph - N/A   Clear